Regional Weather Roundup
Issued by NWS

Home | Current Version | Previous Version | Graphics & Text | Print | Product List | Glossary On
Versions: 1 2 3 4 5 6 7 8 9 10 11 12 13 14 15 16 17 18 19 20 21 22 23 24 25 26 27 28 29 30 31 32 33 34 35 36 37 38 39 40 41 42 43 44 45 46 47 48 49 50
000
ASUS43 KBIS 050102
RWRND

NORTH DAKOTA REGIONAL WEATHER ROUNDUP
NATIONAL WEATHER SERVICE BISMARCK ND
800 PM CDT SAT JUL 04 2015

NOTE: "FAIR" INDICATES FEW OR NO CLOUDS BELOW 12,000 FEET WITH NO
SIGNIFICANT WEATHER AND/OR OBSTRUCTIONS TO VISIBILITY.


NDZ001>003-009>011-017-050200-
NORTHWEST NORTH DAKOTA

CITY           SKY/WX    TMP DP  RH WIND       PRES   REMARKS
WILLISTON      MOSUNNY   81  65  58 N13       29.72R
MINOT          LGT RAIN  75  65  70 W24G43    29.74R
MINOT AFB      TSTM      75  75 100 NW30G36   29.73R FOG
$$

NDZ018>021-031>035-040>046-050200-
SOUTHWEST NORTH DAKOTA

CITY           SKY/WX    TMP DP  RH WIND       PRES   REMARKS
BISMARCK       CLOUDY    81  72  74 S8        29.70F
DICKINSON      LGT RAIN  84  48  28 W16G30    29.73R
GARRISON         N/A     78  70  76 W8        29.72R
HETTINGER ARPT CLOUDY    83  70  64 NE6       29.76F
$$

NDZ004>008-012>016-024-026-027-054-050200-
NORTHEAST NORTH DAKOTA

CITY           SKY/WX    TMP DP  RH WIND       PRES   REMARKS
GRAND FORKS    PTSUNNY   81  68  64 S10       29.71R
GRND FRKS AFB  MOSUNNY   80  68  66 S9        29.72R
DEVILS LAKE    CLOUDY    82  64  54 SE6       29.68S
$$

NDZ022-023-025-028>030-036>039-047>053-050200-
SOUTHEAST NORTH DAKOTA

CITY           SKY/WX    TMP DP  RH WIND       PRES   REMARKS
FARGO          SUNNY     82  65  56 S16G23    29.73F
JAMESTOWN      TSTM      79  71  76 W12G17    29.73S
$$




USA.gov is the U.S. government's official web portal to all federal, state and local government web resources and services.